Flag for Saudi Arabia Weather past 2 weeks in Jeddah, Saudi Arabia

Now
73 °F

Sunny.


Feels Like: 73 °F
Forecast: 72 / 85 °F
Wind: 5 mph from Northeast

Location: Jeddah King Abdul Aziz International Airport

Current Time: Jan 26, 2015 at 8:28:46 AM

Latest Report: Jan 26, 2015 at 8:00 AM


Visibility: 10 mi

Pressure: 29.98 "Hg

Humidity: 83%

Dew point: 68 °F

Location of JeddahLocation

Historic Weather in Jeddah — Graph

°F

Jeddah temperature yesterday

Maximum temperature yesterday: 88 °F (at 1:00 PM)
Minimum temperature yesterday: 70 °F (at 6:00 AM)
Average temperature yesterday: 79 °F

Past Weeks' High & Low Weather Summary

 TemperatureHumidityPressure
High95 °F (Jan 23, 2:00 PM)83% (Jan 25, 7:00 AM)30.15 "Hg (Jan 25, 7:00 AM)
Low55 °F (Jan 21, 7:00 AM)6% (Jan 23, 2:00 PM)29.86 "Hg (Jan 23, 3:00 PM)
Average74 °F44%30.00 "Hg
* Reported Jan 11 7:00 AM — Jan 26 7:00 AM, Jeddah, Weather by CustomWeather, © 2014

Note: Actual official high and low records may vary slightly from our data, if they occured in-between our weather recording intervals... More about our weather records

Advertising

Jeddah weather history for previous 24 hours

 ConditionsComfort  
Time TempWeatherWind HumidityBarometerVisibility
7:00 AM
Jan 26
73 °FClear.3 mph83%29.98 "Hg10 mi
6:00 AM73 °FClear.3 mph83%29.98 "Hg10 mi
5:00 AM73 °FClear.3 mph83%29.95 "Hg10 mi
3:00 AM75 °FClear.3 mph78%29.95 "Hg10 mi
2:00 AM77 °FClear.3 mph79%29.98 "Hg10 mi
1:00 AM77 °FClear.3 mph79%29.95 "Hg10 mi
12:00 AM79 °FPassing clouds.5 mph79%29.95 "HgN/A
11:00 PM
Jan 25
79 °FPassing clouds.3 mph79%29.95 "HgN/A
10:00 PM79 °FClear.5 mph79%29.95 "Hg10 mi
9:00 PM81 °FClear.5 mph70%29.95 "Hg10 mi
8:00 PM81 °FClear.7 mph66%29.92 "Hg10 mi
7:00 PM81 °FClear.9 mph62%29.92 "Hg10 mi
6:00 PM82 °FSunny.14 mph55%29.89 "Hg10 mi
5:00 PM86 °FPassing clouds.12 mph46%29.89 "HgN/A
4:00 PM88 °FScattered clouds.14 mph40%29.86 "HgN/A
3:00 PM88 °FScattered clouds.14 mph43%29.89 "HgN/A
2:00 PM86 °FScattered clouds.14 mph49%29.89 "HgN/A
1:00 PM88 °FScattered clouds.15 mph40%29.95 "HgN/A
12:00 PM86 °FScattered clouds.14 mph49%29.95 "Hg5 mi
11:00 AM84 °FPassing clouds.14 mph48%29.98 "Hg5 mi
10:00 AM81 °FSunny.5 mph58%29.98 "Hg4 mi
9:00 AM75 °FSunny.7 mph78%29.98 "Hg4 mi
8:00 AM70 °FSunny.No wind83%29.95 "Hg4 mi
Weather by CustomWeather, © 2014

See weather overviewHow to use our weather pages